(244390) = 2002 PE69

Discovered at Socorro on 2002-08-11 by LINEAR.

Orbit

Orbit type: Main Belt

Note: WebGL enabled browser required.

epoch2023-09-13.0
epoch JD2460200.5
perihelion date2022-10-09.60372
perihelion JD2459862.10372
argument of perihelion (°)80.40662
ascending node (°)202.81259
inclination (°)10.99060
eccentricity0.2812398
perihelion distance (AU)1.8393162
Tisserand w.r.t. Jupiter3.4
ΔV w.r.t. Earth (km/sec)9.1
semimajor axis (AU)2.5590122
mean anomaly (°)81.47435
mean daily motion (°/day)0.24076610
aphelion distance (AU)3.279
period (years)4.09
P-vector [x]0.22166524
P-vector [y]-0.95265102
P-vector [z]-0.20813590
Q-vector [x]0.97231718
Q-vector [y]0.19975393
Q-vector [z]0.12123395
absolute magnitude16.92
phase slope0.15
uncertainty0
referenceMPEC 2023-Y63
observations used398
oppositions13
arc length (days)9244
first opposition used1998
last opposition used2023
residual rms (arc-secs)0.64
perturbers coarse indicatorM-v
perturbers precise indicator003Ek
first observation date used1998-08-27.0
last observation date used2023-12-18.0
computer nameMPCLINUX
JD of orbit computation2456909.058633
perihelion JD uncertainty (days)9.3941E-05
argument of perihelion uncertainty (°)4.1634E-05
ascending node uncertainty (°)2.6304E-05
inclination uncertainty (°)4.7028E-06
eccentricity uncertainty 2.1667E-07
perihelion distance uncertainty (AU)5.7919E-07
Minimum Orbit Intersection Distances (in AU)
for orbit epoch: 2460200.5, reference: E2023-Y63
Mercury1.40291
Venus1.13863
Earth0.86153
Mars0.47477
Jupiter2.00054
Saturn5.85943
Uranus15.4871
Neptune26.8305

Observations

406 total observations over interval: 1998 08 27.38589 – 2023 12 18.226922
These data are available for download (format description).

Date (UT) J2000 RA J2000 Dec Magn Location Ref
1998 08 27.38589 23 40 35.37 +10 39 13.5 19.5   704 – Lincoln Laboratory ETS, New Mexico MPS 213066
1998 08 27.40342 23 40 34.60 +10 39 04.6 20.0   704 – Lincoln Laboratory ETS, New Mexico MPS 213066
1998 08 27.42086 23 40 33.93 +10 38 52.7 20.1   704 – Lincoln Laboratory ETS, New Mexico MPS 213066
1998 08 27.43831 23 40 33.21 +10 38 49.0 20.2   704 – Lincoln Laboratory ETS, New Mexico MPS 213066
1998 08 27.45581 23 40 32.13 +10 38 40.1 20.5   704 – Lincoln Laboratory ETS, New Mexico MPS 213066
2002 08 04.42615 22 27 44.18 +09 11 57.8 19.4   644 – Palomar Mountain/NEAT MPS 123504
2002 08 04.43656 22 27 43.85 +09 11 55.5 19.3   644 – Palomar Mountain/NEAT MPS 123504
2002 08 04.44701 22 27 43.52 +09 11 53.3 19.5   644 – Palomar Mountain/NEAT MPS 123504
2002 08 04.45745 22 27 43.16 +09 11 50.0 18.9   644 – Palomar Mountain/NEAT MPS 123504
2002 08 04.46826 22 27 42.82 +09 11 47.4 18.8   644 – Palomar Mountain/NEAT MPS 123504
2002 08 04.47910 22 27 42.49 +09 11 45.0 18.7   644 – Palomar Mountain/NEAT MPS 123504
2002 08 11.29011 22 24 00.20 +08 37 27.5 19.1   704 – Lincoln Laboratory ETS, New Mexico MPS 60216
2002 08 11.30397 22 23 59.60 +08 37 21.9 19.1   704 – Lincoln Laboratory ETS, New Mexico MPS 60216
2002 08 11.30614 22 23 59.50 +08 37 21.8 18.8   704 – Lincoln Laboratory ETS, New Mexico MPS 60216
2002 08 11.31782 22 23 59.04 +08 37 17.8 19.6   704 – Lincoln Laboratory ETS, New Mexico MPS 60216
2002 08 11.32158 22 23 58.89 +08 37 15.4 19.2   704 – Lincoln Laboratory ETS, New Mexico MPS 60216
2002 08 11.33700 22 23 58.25 +08 37 11.6 19.5   704 – Lincoln Laboratory ETS, New Mexico MPS 60216
2002 08 11.34599 22 23 57.87 +08 37 07.0 20.0   704 – Lincoln Laboratory ETS, New Mexico MPS 60216
2002 08 11.35243 22 23 57.69 +08 37 04.8 18.7   704 – Lincoln Laboratory ETS, New Mexico MPS 60216
2002 08 11.36787 22 23 57.06 +08 36 58.5 19.0   704 – Lincoln Laboratory ETS, New Mexico MPS 60216
2002 08 13.29420 22 22 44.95 +08 24 10.2 18.9   704 – Lincoln Laboratory ETS, New Mexico MPS 60216
2002 08 13.30936 22 22 44.41 +08 24 02.0 18.9   704 – Lincoln Laboratory ETS, New Mexico MPS 60216
2002 08 13.32463 22 22 43.69 +08 23 56.1 19.7   704 – Lincoln Laboratory ETS, New Mexico MPS 60216
2002 08 13.33939 22 22 43.13 +08 23 49.6 19.6   704 – Lincoln Laboratory ETS, New Mexico MPS 60216
2002 08 26.44799 22 13 43.48 +06 25 06.7 18.6   644 – Palomar Mountain/NEAT MPS 123504
2002 08 26.45801 22 13 43.03 +06 24 59.9 18.7   644 – Palomar Mountain/NEAT MPS 123504
2002 08 26.46826 22 13 42.59 +06 24 53.3 19.0   644 – Palomar Mountain/NEAT MPS 123504
2002 09 12.17482 22 03 35.48 +03 04 51.7 19.4   644 – Palomar Mountain/NEAT MPS 123504
2002 09 12.19592 22 03 34.85 +03 04 36.3 19.2   644 – Palomar Mountain/NEAT MPS 123504
2002 09 12.21604 22 03 34.23 +03 04 21.2 19.1   644 – Palomar Mountain/NEAT MPS 123504
2002 10 05.226430 22 00 01.938 -01 14 14.43 19.91 V 645 – Apache Point-Sloan Digital Sky Survey MPS 123504
2002 10 05.229902 22 00 01.961 -01 14 16.27 20.57   645 – Apache Point-Sloan Digital Sky Survey MPS 123504
2006 05 27.36566 20 44 20.88 -00 56 12.4 20.5 V 691 – Steward Observatory, Kitt Peak-Spacewatch MPS 172790
2006 05 27.38641 20 44 22.01 -00 55 56.9 20.2 V 691 – Steward Observatory, Kitt Peak-Spacewatch MPS 172790
2006 05 27.40726 20 44 23.16 -00 55 41.4 20.5 V 691 – Steward Observatory, Kitt Peak-Spacewatch MPS 172790
2006 05 31.42981 20 47 55.05 -00 06 17.0 20.0 V 691 – Steward Observatory, Kitt Peak-Spacewatch MPS 172790
2006 05 31.44716 20 47 55.85 -00 06 04.5 20.2 V 691 – Steward Observatory, Kitt Peak-Spacewatch MPS 172790
2006 05 31.46451 20 47 56.65 -00 05 51.9 20.1 V 691 – Steward Observatory, Kitt Peak-Spacewatch MPS 172790
2006 07 21.29309 20 50 57.24 +05 23 31.9 18.8   704 – Lincoln Laboratory ETS, New Mexico MPS 174824
2006 07 21.30331 20 50 56.84 +05 23 30.3 19.3   704 – Lincoln Laboratory ETS, New Mexico MPS 174824
2006 07 21.31368 20 50 56.32 +05 23 30.5 19.2   704 – Lincoln Laboratory ETS, New Mexico MPS 174824
2010 03 18.686050 17 51 17.34 -16 09 09.6   C51 – WISE MPS 319253
2010 03 18.818353 17 51 31.73 -16 08 17.8   C51 – WISE MPS 334798
2010 03 18.950657 17 51 46.14 -16 07 25.8   C51 – WISE MPS 334798
2010 03 19.215265 17 52 14.83 -16 05 41.3   C51 – WISE MPS 319253
2010 03 19.480001 17 52 43.47 -16 03 54.9   C51 – WISE MPS 319253
2010 03 19.612304 17 52 57.83 -16 03 02.5   C51 – WISE MPS 334798
2010 03 19.678394 17 53 04.97 -16 02 36.7   C51 – WISE MPS 319253
2010 03 19.810697 17 53 19.30 -16 01 43.3   C51 – WISE MPS 334798
2010 03 19.943128 17 53 33.52 -16 00 49.6   C51 – WISE MPS 334798
2010 03 20.07543 17 53 47.81 -15 59 56.4   C51 – WISE MPS 319253
2010 03 20.207736 17 54 02.08 -15 59 02.6   C51 – WISE MPS 319254
2010 07 07.28550 18 53 12.50 +00 51 23.8 19.2   704 – Lincoln Laboratory ETS, New Mexico MPS 337284
2010 07 07.29585 18 53 12.04 +00 51 23.1 19.7   704 – Lincoln Laboratory ETS, New Mexico MPS 337284
2010 07 07.30605 18 53 11.58 +00 51 23.8 19.8   704 – Lincoln Laboratory ETS, New Mexico MPS 337284
2010 07 07.31618 18 53 11.12 +00 51 23.3 19.7   704 – Lincoln Laboratory ETS, New Mexico MPS 337284
2011 12 01.34190 04 34 11.357 +10 14 18.82 21.4 w F51 – Pan-STARRS 1, Haleakala MPS 403699
2011 12 01.35577 04 34 10.531 +10 14 15.71 21.3 w F51 – Pan-STARRS 1, Haleakala MPS 403699
2011 12 01.36961 04 34 09.714 +10 14 12.55 21.4 w F51 – Pan-STARRS 1, Haleakala MPS 403699
2011 12 01.38344 04 34 08.890 +10 14 09.51 21.4 w F51 – Pan-STARRS 1, Haleakala MPS 403699
2014 05 06.50428 17 24 29.134 -09 38 09.28 19.3 w F51 – Pan-STARRS 1, Haleakala MPS 514992
2014 05 06.52836 17 24 29.052 -09 37 52.17 19.3 w F51 – Pan-STARRS 1, Haleakala MPS 514992
2014 05 06.54035 17 24 29.008 -09 37 43.67 19.2 w F51 – Pan-STARRS 1, Haleakala MPS 514992
2014 05 22.37407 17 20 31.83 -06 30 30.7 18.7 V 703 – Catalina Sky Survey MPS 516231
2014 05 22.37908 17 20 31.68 -06 30 27.0 18.8 V 703 – Catalina Sky Survey MPS 516231
2014 05 22.38409 17 20 31.54 -06 30 23.7 18.9 V 703 – Catalina Sky Survey MPS 516231
2014 05 22.38911 17 20 31.42 -06 30 20.1 18.7 V 703 – Catalina Sky Survey MPS 516231
2014 05 26.49631 17 18 21.844 -05 44 33.95 18.6 w F51 – Pan-STARRS 1, Haleakala MPS 517645
2014 05 26.50795 17 18 21.403 -05 44 26.37 18.7 w F51 – Pan-STARRS 1, Haleakala MPS 517645
2014 05 26.51957 17 18 20.963 -05 44 18.82 18.8 w F51 – Pan-STARRS 1, Haleakala MPS 517645
2014 05 30.43502 17 15 58.016 -05 03 09.70 18.6 w F51 – Pan-STARRS 1, Haleakala MPS 517645
2014 05 30.44661 17 15 57.525 -05 03 02.67 18.6 w F51 – Pan-STARRS 1, Haleakala MPS 517645
2014 05 30.45823 17 15 57.037 -05 02 55.57 18.6 w F51 – Pan-STARRS 1, Haleakala MPS 517645
2014 06 05.33255 17 11 56.74 -04 07 12.2 18.6 V 703 – Catalina Sky Survey MPS 518665
2014 06 05.33705 17 11 56.52 -04 07 09.7 18.5 V 703 – Catalina Sky Survey MPS 518665
2014 06 05.34155 17 11 56.30 -04 07 08.0 18.7 V 703 – Catalina Sky Survey MPS 518665
2014 06 05.34605 17 11 56.18 -04 07 05.1 18.3 V 703 – Catalina Sky Survey MPS 518665
2014 06 21.20524 17 00 45.91 -02 25 13.4   G45 – Space Surveillance Telescope, Atom Site MPS 526985
2014 06 21.21663 17 00 45.45 -02 25 10.2   G45 – Space Surveillance Telescope, Atom Site MPS 526985
2014 06 21.22809 17 00 44.97 -02 25 07.9 18.7 r G45 – Space Surveillance Telescope, Atom Site MPS 526985
2014 06 21.24339 17 00 44.31 -02 25 04.7 18.9 r G45 – Space Surveillance Telescope, Atom Site MPS 526985
2014 06 21.26161 17 00 43.56 -02 25 00.4   G45 – Space Surveillance Telescope, Atom Site MPS 526985
2014 06 22.39151 17 00 00.961 -02 20 52.60 18.6 w F51 – Pan-STARRS 1, Haleakala MPS 521066
2014 06 22.40305 17 00 00.480 -02 20 50.19 18.7 w F51 – Pan-STARRS 1, Haleakala MPS 521066
2014 06 23.34560 16 59 25.74 -02 17 47.2 17.0 V G96 – Mt. Lemmon Survey MPS 521066
2014 06 23.35168 16 59 25.51 -02 17 46.1 16.5 V G96 – Mt. Lemmon Survey MPS 521066
2014 06 23.35775 16 59 25.26 -02 17 45.0 17.6 V G96 – Mt. Lemmon Survey MPS 521066
2014 06 23.36383 16 59 25.02 -02 17 43.8 18.3 V G96 – Mt. Lemmon Survey MPS 521066
2014 07 23.88288 16 53 58.43 -03 07 50.4 19.2 R C27 – Pallerols MPS 523606
2014 07 23.90678 16 53 58.85 -03 07 57.9 19.3 R C27 – Pallerols MPS 523606
